[[{"header":{"parameterUnit":"m.s-1","parameterCategory":1,"la1":30.2991,"la2":30.254,"lo1":-89.0895,"lo2":-89.0444,"dy":0.0017,"dx":0.0017,"nx":28,"ny":28,"refTime":"2025-02-26T09:00:00:Z","depth":0,"parameterNumber":2,"parameterNumberName":"U-component_of_WINDS"},"data":[0,0,0,0,0,0,0,0,0,0,0,0,0,0,0,0,0,0,0,0,0,0,0,0,0,0,0,0,0,0,0,0,0,0,0,0,0,0,0,0,0,0,0,0,0,0,0,0,0,0,0,0,0,0,0,0,0,0,1.1959,1.196,0,1.2007,1.2008,1.2008,1.1966,1.1964,1.1962,1.196,1.2012,1.2015,1.2018,0,0,0,0,0,0,0,0,0,0,0,0,0,1.1833,1.1836,1.1959,1.196,1.196,1.2007,1.2008,1.2009,1.1966,1.1964,1.1962,1.196,1.2011,1.2015,1.2019,0,0,0,0,0,0,0,0,0,0,0,0,0,1.1885,1.1837,1.1959,1.1945,1.1944,1.2007,1.2008,1.2009,1.1966,1.1964,1.1961,1.1959,1.201,1.2015,1.2019,1.21,0,0,1.2033,1.2035,0,0,0,0,0,0,0,0,1.1882,1.189,1.1946,1.1946,1.1945,1.1978,1.1983,1.2039,1.1967,1.1958,1.196,1.1957,1.2003,1.2008,1.2023,1.2103,1.2105,1.2033,1.2036,1.2038,1.2039,0,0,0,0,0,0,0,1.1879,1.1888,1.1978,1.1947,1.1946,1.1937,1.1941,1.1993,1.1995,1.1958,1.1955,1.1962,1.2002,1.2019,1.2024,1.2106,1.2033,1.2037,1.204,1.2042,1.2255,1.2258,0,0,0,0,0,0,1.1876,1.1885,1.1977,1.198,1.1906,1.1941,1.1946,1.197,1.1994,1.1995,1.1964,1.1959,1.2012,1.2019,1.2026,1.2123,1.2038,1.2042,1.2045,1.2252,1.2256,1.2259,0,0,0,0,0,0,1.1874,1.1885,1.1975,1.1932,1.1942,1.1946,1.1973,1.1972,1.1989,1.1998,1.1998,1.198,1.2011,1.2019,1.2082,1.2124,1.2044,1.2049,1.2249,1.2253,1.2257,1.2317,0,0,0,0,0,0,1.187,1.1884,1.1914,1.1933,1.1945,1.203,1.1976,1.1975,1.1996,1.1991,1.2014,1.2015,1.2009,1.2075,1.2086,1.2129,1.2052,1.2245,1.2251,1.2256,1.2312,1.2323,1.2333,0,0,0,0,0,1.1866,1.193,1.1916,1.1927,1.1982,1.2032,1.2039,1.2031,1.2,1.2031,1.2037,1.2014,1.2117,1.2082,1.2094,1.2139,1.2242,1.2249,1.2255,1.2307,1.2321,1.2333,0,0,0,0,0,0,1.1917,1.1932,1.1917,1.1988,1.2009,1.2025,1.2063,1.2046,1.2076,1.207,1.2059,1.2065,1.2131,1.2141,1.2101,1.2219,1.2175,1.2184,1.221,1.2224,1.2234,1.2231,1.2056,0,0,0,0,0,1.1937,1.1975,1.1986,1.2048,1.2059,1.206,1.2081,1.2072,1.2094,1.2103,1.2114,1.2136,1.2174,1.2199,1.2234,1.2313,1.2318,1.2349,1.236,1.2369,1.2377,1.2421,1.2435,1.228,1.228,1.228,0,0,1.1978,1.199,1.2015,1.2059,1.2074,1.2115,1.2067,1.2112,1.2143,1.211,1.217,1.2179,1.2203,1.2275,1.2307,1.2285,1.2421,1.2377,1.2384,1.2388,1.2429,1.2444,1.2457,1.2285,1.2284,1.2283,0,0,1.2073,1.2086,1.2139,1.2156,1.2179,1.2179,1.2192,1.221,1.2215,1.2274,1.2251,1.2287,1.2352,1.2371,1.2389,1.2492,1.2473,1.2504,1.2561,1.2603,1.2616,1.2626,1.2664,1.2678,1.2512,1.2513,1.2513,0,1.2121,1.2181,1.2169,1.2216,1.2237,1.2208,1.2263,1.2279,1.2313,1.2329,1.2303,1.2385,1.2399,1.2475,1.25,1.2515,1.2531,1.2502,1.2615,1.2625,1.2635,1.2671,1.2686,1.2516,1.2516,1.2516,1.2515,0,1.224,1.2282,1.2322,1.2355,1.238,1.2431,1.2428,1.2454,1.2444,1.2447,1.2509,1.2525,1.2563,1.2581,1.2571,1.2656,1.2642,1.2616,1.2572,1.2654,1.2688,1.2701,1.2522,1.252,1.2519,1.2518,0,0,1.2369,1.2395,1.241,1.2425,1.2449,1.2482,1.2532,1.2568,1.2592,1.2617,1.2659,1.2715,1.2691,1.2712,1.2704,1.2742,1.2824,1.2711,1.2712,1.2733,1.292,1.294,1.2956,1.2811,1.2813,1.2815,1.2918,0,1.2466,1.2552,1.2543,1.2625,1.2665,1.2638,1.2682,1.2702,1.2706,1.2741,1.2746,1.2786,1.2751,1.2764,1.2799,1.2806,1.2861,1.2799,1.2852,1.2854,1.2847,1.2973,1.2994,1.309,1.2931,1.2933,1.2935,0,1.2591,1.2619,1.2705,1.2724,1.274,1.2779,1.2813,1.2846,1.2869,1.2869,1.2893,1.2879,1.293,1.2885,1.2956,1.2914,1.2935,1.2942,1.2946,1.2951,1.29,1.2983,1.312,1.3135,1.2955,1.2954,1.2952,0,1.2678,1.2738,1.2797,1.2811,1.2834,1.2862,1.2873,1.2893,1.2916,1.2946,1.2961,1.2996,1.3016,1.3044,1.3041,1.3008,1.3115,1.3068,1.3118,1.3118,1.3142,1.3141,1.3286,1.3154,1.3154,1.3154,1.3154,0,1.2788,1.2842,1.2837,1.2873,1.2933,1.2923,1.2983,1.2991,1.3009,1.3048,1.3027,1.3064,1.3057,1.3094,1.3092,1.3152,1.3161,1.3164,1.3163,1.3167,1.3167,1.3181,1.3175,1.3158,1.3157,1.3156,1.3155,0,1.2896,1.2894,1.2957,1.2974,1.2979,1.3023,1.3037,1.3073,1.3075,1.3124,1.3135,1.314,1.3183,1.3182,1.3231,1.3229,1.3304,1.3295,1.3296,1.3295,1.3345,1.3341,1.3505,1.3527,1.338,1.3382,1.3383,0,1.2966,1.3007,1.3028,1.3052,1.3064,1.3103,1.3126,1.3118,1.3144,1.3173,1.3205,1.3246,1.3278,1.3348,1.3357,1.3394,1.3387,1.3442,1.3392,1.3395,1.3389,1.3387,1.3392,1.3452,1.3453,1.3455,1.3456,0,1.3092,1.309,1.3123,1.3157,1.3185,1.3212,1.3236,1.3257,1.3252,1.3282,1.3325,1.335,1.34,1.3441,1.3478,1.349,1.3473,1.3471,1.3485,1.3489,1.3489,1.3491,1.3324,1.3468,1.3466,1.3466,1.3465,1.3464,1.3184,1.322,1.324,1.3279,1.3296,1.3319,1.3353,1.336,1.3396,1.3435,1.3428,1.3477,1.35,1.3547,1.3563,1.3602,1.3583,1.3602,1.3607,1.3613,1.3619,1.3482,1.3608,1.3608,1.3608,1.3607,1.3607,0,1.331,1.3322,1.3357,1.3392,1.3423,1.3402,1.3428,1.3456,1.3499,1.3521,1.3553,1.3604,1.3644,1.3655,1.3694,1.3724,1.3717,1.3734,1.3733,1.3736,1.3633,1.3618,1.3739,1.3739,1.3739,1.3739,1.3739,1.3739,1.3379,1.3438,1.3438,1.3506,1.3518,1.3565,1.3582,1.3604,1.3621,1.3678,1.3711,1.3718,1.3737,1.3777,1.3814,1.3816,1.3832,1.3853,1.3853,1.3756,1.3743,1.3731,1.3716,1.3857,1.3857,1.3953,1.3954,1.3954]},{"header":{"parameterUnit":"m.s-1","parameterCategory":1,"la1":30.2991,"la2":30.254,"lo1":-89.0895,"lo2":-89.0444,"dy":0.0017,"dx":0.0017,"nx":28,"ny":28,"refTime":"2025-02-26T09:00:00:Z","depth":0,"parameterNumber":3,"parameterNumberName":"V-component_of_WINDS"},"data":[0,0,0,0,0,0,0,0,0,0,0,0,0,0,0,0,0,0,0,0,0,0,0,0,0,0,0,0,0,0,0,0,0,0,0,0,0,0,0,0,0,0,0,0,0,0,0,0,0,0,0,0,0,0,0,0,0,0,0.9445,0.9446,0,0.9542,0.9543,0.9544,0.9532,0.9531,0.9529,0.9528,0.963,0.9634,0.9638,0,0,0,0,0,0,0,0,0,0,0,0,0,0.9253,0.9257,0.9445,0.9446,0.9447,0.9542,0.9543,0.9544,0.9533,0.9531,0.9529,0.9527,0.9629,0.9634,0.9639,0,0,0,0,0,0,0,0,0,0,0,0,0,0.9342,0.9258,0.9445,0.9453,0.9454,0.9541,0.9543,0.9545,0.9533,0.9531,0.9528,0.9526,0.9627,0.9633,0.9639,0.9725,0,0,0.9659,0.9661,0,0,0,0,0,0,0,0,0.9337,0.9349,0.945,0.9452,0.9454,0.9522,0.9513,0.9605,0.9534,0.9503,0.9528,0.9525,0.9596,0.9605,0.9628,0.973,0.9734,0.9659,0.9663,0.9666,0.9667,0,0,0,0,0,0,0,0.9331,0.9345,0.9483,0.9452,0.9454,0.9453,0.9463,0.953,0.9562,0.9506,0.9505,0.9517,0.9597,0.9622,0.9631,0.9736,0.9659,0.9665,0.9668,0.9671,0.9913,0.9916,0,0,0,0,0,0,0.9322,0.934,0.948,0.9486,0.9389,0.9458,0.9469,0.9503,0.9561,0.9568,0.9518,0.9516,0.9613,0.9623,0.9634,0.974,0.9666,0.9671,0.9675,0.9911,0.9914,0.9917,0,0,0,0,0,0,0.9318,0.9335,0.9476,0.9413,0.9431,0.9464,0.9502,0.9506,0.9532,0.9571,0.9577,0.9538,0.9611,0.9626,0.9703,0.9743,0.9674,0.968,0.9908,0.9912,0.9915,0.995,0,0,0,0,0,0,0.9313,0.9333,0.9366,0.9414,0.9434,0.9542,0.9504,0.951,0.9542,0.9539,0.9591,0.9597,0.9611,0.9693,0.9709,0.975,0.9685,0.9904,0.9909,0.9914,0.9946,0.9955,0.9963,0,0,0,0,0,0.9306,0.9372,0.9367,0.9384,0.9475,0.9545,0.9557,0.957,0.9545,0.9579,0.9604,0.9596,0.9735,0.9701,0.9719,0.9763,0.9902,0.9908,0.9914,0.9942,0.9953,0.9963,0,0,0,0,0,0,0.933,0.9379,0.9374,0.9458,0.9497,0.9543,0.9585,0.9581,0.9629,0.9625,0.9639,0.9651,0.9729,0.9753,0.9714,0.9849,0.9816,0.9825,0.9831,0.9842,0.985,0.9844,0.969,0,0,0,0,0,0.9344,0.9396,0.9436,0.9506,0.9526,0.9552,0.9583,0.9589,0.9631,0.9648,0.9679,0.9721,0.9774,0.9809,0.986,0.9948,0.996,0.9987,0.9996,1.0003,1.0012,1.0061,1.0074,0.9937,0.9937,0.9937,0,0,0.9376,0.9409,0.9441,0.9512,0.9543,0.9597,0.9566,0.9625,0.9665,0.9657,0.9732,0.9756,0.9804,0.9887,0.9925,0.9909,1.0052,1.001,1.0016,1.0021,1.0069,1.0082,1.0093,0.9941,0.994,0.9939,0,0,0.9462,0.9491,0.9553,0.9585,0.9632,0.9649,0.9663,0.971,0.9725,0.98,0.9795,0.9844,0.9935,0.9969,0.9999,1.0096,1.0091,1.0112,1.0158,1.0206,1.0217,1.0227,1.0263,1.0276,1.0121,1.0121,1.0121,0,0.9496,0.9576,0.9586,0.9645,0.9677,0.967,0.9734,0.9764,0.9826,0.9849,0.983,0.9944,0.9976,1.0068,1.0091,1.0115,1.0133,1.0108,1.0214,1.0224,1.0234,1.0269,1.0282,1.0123,1.0123,1.0123,1.0122,0,0.9616,0.9672,0.9716,0.9775,0.9812,0.9873,0.9893,0.9929,0.9932,0.9951,1.0027,1.0064,1.0123,1.0145,1.0149,1.0238,1.0227,1.0211,1.0178,1.0249,1.0282,1.0295,1.0127,1.0126,1.0125,1.0124,0,0,0.9722,0.9784,0.98,0.9827,0.9878,0.9922,0.9983,1.0039,1.007,1.0113,1.0165,1.0242,1.0228,1.0261,1.0268,1.031,1.0387,1.029,1.0291,1.0308,1.0489,1.0502,1.0517,1.0383,1.0385,1.0387,1.0485,0,0.9813,0.992,0.9931,1.0027,1.0079,1.0073,1.0126,1.0164,1.0183,1.0231,1.0252,1.0307,1.0283,1.0303,1.0344,1.0369,1.0424,1.0362,1.0434,1.0436,1.0424,1.0534,1.0548,1.0639,1.0498,1.05,1.0502,0,0.9935,0.9981,1.0082,1.0125,1.0148,1.0195,1.0248,1.0293,1.0336,1.0347,1.0383,1.0385,1.0449,1.0411,1.05,1.0458,1.0487,1.0504,1.0508,1.0517,1.0475,1.0548,1.0668,1.0683,1.0522,1.0521,1.0519,0,1.0004,1.009,1.0162,1.0185,1.0237,1.0271,1.0295,1.0335,1.0368,1.0414,1.0436,1.0489,1.0519,1.0561,1.0577,1.0548,1.0665,1.0629,1.0678,1.0678,1.0705,1.0704,1.0834,1.072,1.072,1.072,1.072,0,1.0107,1.017,1.0194,1.0238,1.0308,1.0319,1.0389,1.0411,1.0447,1.0496,1.0493,1.054,1.0558,1.0608,1.062,1.0693,1.0706,1.0718,1.0721,1.0719,1.0718,1.0741,1.0736,1.0724,1.0723,1.0722,1.0721,0,1.0197,1.0215,1.0293,1.0336,1.0348,1.0398,1.0435,1.0479,1.0496,1.0559,1.0574,1.0602,1.0661,1.068,1.0751,1.076,1.0845,1.0842,1.0831,1.0832,1.0881,1.0877,1.1032,1.1054,1.0924,1.0925,1.0926,0,1.0263,1.0311,1.0358,1.039,1.0415,1.0467,1.0501,1.0513,1.0549,1.0601,1.0638,1.0696,1.0743,1.0836,1.0864,1.0918,1.0918,1.0968,1.0926,1.0923,1.0921,1.0919,1.0925,1.0977,1.0978,1.098,1.098,0,1.0378,1.0384,1.0432,1.0484,1.0524,1.0565,1.0605,1.0632,1.065,1.0691,1.075,1.0786,1.0858,1.0916,1.0971,1.0996,1.0993,1.0993,1.1008,1.1008,1.1,1.1007,1.0855,1.099,1.0989,1.0988,1.0988,1.0987,1.0459,1.0501,1.0541,1.0595,1.0626,1.0664,1.0707,1.0729,1.0778,1.0837,1.0842,1.0906,1.0947,1.1021,1.1049,1.11,1.1086,1.1107,1.1113,1.1118,1.1123,1.099,1.111,1.111,1.111,1.1109,1.1109,0,1.0575,1.06,1.065,1.0705,1.0748,1.0738,1.0782,1.0818,1.0875,1.0913,1.0959,1.1027,1.1083,1.1114,1.1171,1.1206,1.1205,1.122,1.1219,1.1225,1.1131,1.1114,1.122,1.122,1.122,1.1219,1.1219,1.1219,1.0641,1.0713,1.0724,1.0812,1.0836,1.0899,1.0925,1.0959,1.099,1.1066,1.1112,1.1132,1.1168,1.1226,1.1278,1.1285,1.1307,1.1324,1.1331,1.1243,1.1232,1.1221,1.1205,1.1328,1.1328,1.1421,1.1422,1.1422]}]]